Погода в Багаевской

Россия / Ростовская область     47°18′43″N   40°23′00″E
темп.,
°C
ветер,
м/с
пор.,
м/с
влажн.,
%
обл.,
%
осадки,
мм/ч
давл.,
гПа
погр.,
м
24 октября, вс
вс2400:00+13ссз4772100 0.1 1018461
03:00+12з2386100 0.8 1019190
06:00+11з2385100 0.1 1019106
09:00+12с3457100 0.1 1020309
12:00+14ссв3340100 0.0 10201025
15:00+14с4438100 0.0 10201520
18:00+11с4643100 0.1 1021460
21:00+9с3558100 0.2 1022807
25 октября, пн
пн2500:00+8з2458100 0.0 1022238
03:00+6сз37626 0.0 1023166
06:00+4ссз39725 0.0 1026246
09:00+6ссз46615 0.0 1027578
12:00+9ссз454548 0.0 10281476
15:00+10ссз55355 0.0 10281657
18:00+6с35465 0.0 103080
21:00+4ссв34455 0.0 103252
26 октября, вт
вт2600:00+2ссв22475 0.0 103225
03:00+1св22510 0.0 103315
06:000всв22540 0.0 103412
09:00+4всв23420 0.0 1034258
12:00+8в33280 0.0 1033931
15:00+10в22235 0.0 10321099
18:00+6в22315 0.0 103215
21:00+4в34391 0.0 103245
27 октября, ср
ср2700:00+3вюв34460 0.0 103245
03:00+1в34510 0.0 103144
06:00+1в35530 0.0 103082
09:00+5вюв58440 0.0 1030340
12:00+11вюв67280 0.0 1028841
15:00+13вюв67250 0.0 1026960
18:00+7вюв410400 0.0 1026178
21:00+5вюв410490 0.0 1024180
28 октября, чт
чт2800:00+4в346017 0.0 102450
03:00+3в347616 0.0 102354
06:00+2всв2290100 0.0 102336
09:00+5всв3480100 0.0 1023235
12:00+10св3361100 0.0 1023692
15:00+11ссв3354100 0.0 1022938
18:00+8ссв227044 0.0 102313
21:00+6с33795 0.0 102324